When you browse on this site, cookies collect data to enhance your experience and personalize the content and advertising you see.
Visit our Privacy Policy to learn more. By continuing to use the site, you agree to this use of cookies and data.
  • In Portugal
  • List of Countries
  • For 7 days
  • Water Temperature
  • Satellite Maps
  • Weather Map
  • Weather Widgets
  • user-avatar
    Login

    Hourly Weather Monino

    Today, 18 April, Thursday

    Time Temperature Precipitation Wind Pressure Humidity
    00:00 +6°C° 0 mm 1 mps 756 mmHg 69%
    01:00 +5°C° 0 mm 1 mps 756 mmHg 71%
    02:00 +4°C° 0 mm 1 mps 756 mmHg 73%
    03:00 +4°C° 0 mm 1 mps 756 mmHg 74%
    04:00 +4°C° 0 mm 1 mps 755 mmHg 75%
    05:00 +4°C° 0 mm 1 mps 755 mmHg 76%
    06:00 +5°C° 0 mm 2 mps 755 mmHg 70%
    07:00 +6°C° 0 mm 2 mps 755 mmHg 64%
    08:00 +8°C° 0 mm 3 mps 755 mmHg 58%
    09:00 +9°C° 0 mm 3 mps 754 mmHg 55%
    10:00 +10°C° 0 mm 4 mps 754 mmHg 51%
    11:00 +11°C° 0 mm 4 mps 754 mmHg 48%
    12:00 +11°C° 0 mm 4 mps 754 mmHg 48%
    13:00 +10°C° 0 mm 4 mps 754 mmHg 49%
    14:00 +10°C° 0 mm 4 mps 754 mmHg 49%
    15:00 +10°C° 0 mm 4 mps 754 mmHg 49%
    16:00 +10°C° 0 mm 4 mps 754 mmHg 48%
    17:00 +10°C° 0 mm 4 mps 754 mmHg 48%
    18:00 +8°C° 0 mm 3 mps 755 mmHg 54%
    19:00 +7°C° 0 mm 3 mps 755 mmHg 61%
    20:00 +6°C° 0 mm 2 mps 755 mmHg 67%
    21:00 +5°C° 0 mm 2 mps 756 mmHg 71%
    22:00 +4°C° 0 mm 2 mps 756 mmHg 76%
    23:00 +4°C° 0 mm 2 mps 757 mmHg 80%

    Tomorrow, 19 April, Friday

    Time Temperature Precipitation Wind Pressure Humidity
    00:00 +3°C° 0 mm 2 mps 757 mmHg 84%
    01:00 +3°C° 0 mm 2 mps 757 mmHg 88%
    02:00 +2°C° 0 mm 2 mps 757 mmHg 91%
    03:00 +2°C° 0 mm 2 mps 757 mmHg 92%
    04:00 +1°C° 0 mm 2 mps 758 mmHg 93%
    05:00 +2°C° 0 mm 1 mps 758 mmHg 93%
    06:00 +4°C° 0 mm 1 mps 758 mmHg 83%
    07:00 +5°C° 0 mm 2 mps 758 mmHg 73%
    08:00 +6°C° 0 mm 2 mps 758 mmHg 63%
    09:00 +8°C° 0 mm 2 mps 758 mmHg 56%
    10:00 +9°C° 0 mm 2 mps 758 mmHg 49%
    11:00 +12°C° 0 mm 2 mps 758 mmHg 42%
    12:00 +12°C° 0 mm 2 mps 758 mmHg 39%
    13:00 +13°C° 0 mm 2 mps 757 mmHg 37%
    14:00 +14°C° 0 mm 1 mps 757 mmHg 35%
    15:00 +14°C° 0 mm 1 mps 756 mmHg 36%
    16:00 +13°C° 0 mm 1 mps 756 mmHg 37%
    17:00 +13°C° 0 mm 1 mps 756 mmHg 37%
    18:00 +11°C° 0 mm 1 mps 755 mmHg 43%
    19:00 +10°C° 0 mm 1 mps 755 mmHg 50%
    20:00 +8°C° 0 mm 1 mps 755 mmHg 56%
    21:00 +8°C° 0 mm 1 mps 755 mmHg 57%
    22:00 +8°C° 0 mm 1 mps 755 mmHg 59%
    23:00 +8°C° 0 mm 1 mps 755 mmHg 61%

    Day after tomorrow, 20 April, Saturday

    Time Temperature Precipitation Wind Pressure Humidity
    00:00 +7°C° 0.1 mm 1 mps 754 mmHg 63%
    01:00 +7°C° 0.1 mm 1 mps 754 mmHg 66%
    02:00 +6°C° 0.1 mm 2 mps 754 mmHg 68%
    03:00 +6°C° 0.3 mm 2 mps 753 mmHg 75%
    04:00 +6°C° 0.3 mm 2 mps 753 mmHg 81%
    05:00 +5°C° 0.3 mm 2 mps 753 mmHg 88%
    06:00 +6°C° 0.2 mm 2 mps 753 mmHg 86%
    07:00 +7°C° 0.2 mm 2 mps 753 mmHg 84%
    08:00 +7°C° 0.2 mm 3 mps 752 mmHg 82%
    09:00 +9°C° 0.1 mm 3 mps 752 mmHg 73%
    10:00 +10°C° 0.1 mm 3 mps 752 mmHg 64%
    11:00 +11°C° 0.1 mm 3 mps 752 mmHg 55%
    12:00 +12°C° 0.1 mm 2 mps 752 mmHg 52%
    13:00 +12°C° 0.1 mm 2 mps 752 mmHg 48%
    14:00 +13°C° 0.1 mm 2 mps 752 mmHg 45%
    15:00 +12°C° 0.1 mm 2 mps 751 mmHg 47%
    16:00 +12°C° 0.1 mm 2 mps 751 mmHg 49%
    17:00 +10°C° 0.1 mm 2 mps 751 mmHg 51%
    18:00 +9°C° 0.1 mm 2 mps 751 mmHg 59%
    19:00 +8°C° 0.1 mm 2 mps 752 mmHg 67%
    20:00 +6°C° 0.1 mm 2 mps 752 mmHg 75%
    21:00 +6°C° 0.2 mm 2 mps 752 mmHg 80%
    22:00 +5°C° 0.2 mm 2 mps 752 mmHg 84%
    23:00 +4°C° 0.2 mm 2 mps 752 mmHg 89%

    21 April, Sunday

    Time Temperature Precipitation Wind Pressure Humidity
    00:00 +4°C° 0.1 mm 2 mps 752 mmHg 91%
    01:00 +4°C° 0.1 mm 2 mps 752 mmHg 92%
    02:00 +4°C° 0.1 mm 2 mps 752 mmHg 94%
    03:00 +3°C° 0 mm 2 mps 752 mmHg 95%
    04:00 +3°C° 0 mm 2 mps 753 mmHg 95%
    05:00 +3°C° 0 mm 2 mps 753 mmHg 96%
    06:00 +4°C° 0 mm 2 mps 753 mmHg 90%
    07:00 +5°C° 0 mm 3 mps 753 mmHg 84%
    08:00 +8°C° 0 mm 3 mps 754 mmHg 78%
    09:00 +9°C° 0 mm 3 mps 754 mmHg 72%
    10:00 +10°C° 0 mm 3 mps 754 mmHg 67%
    11:00 +12°C° 0 mm 3 mps 754 mmHg 61%
    12:00 +13°C° 0.1 mm 3 mps 754 mmHg 56%
    13:00 +14°C° 0.1 mm 3 mps 754 mmHg 50%
    14:00 +16°C° 0.1 mm 3 mps 754 mmHg 45%
    15:00 +15°C° 0 mm 2 mps 754 mmHg 46%
    16:00 +15°C° 0 mm 2 mps 754 mmHg 48%
    17:00 +14°C° 0 mm 2 mps 754 mmHg 49%
    18:00 +13°C° 0 mm 2 mps 754 mmHg 54%
    19:00 +10°C° 0 mm 2 mps 754 mmHg 59%
    20:00 +10°C° 0 mm 1 mps 755 mmHg 65%
    21:00 +8°C° 0 mm 2 mps 755 mmHg 67%
    22:00 +7°C° 0 mm 2 mps 755 mmHg 69%
    23:00 +7°C° 0 mm 2 mps 755 mmHg 72%

    22 April, Monday

    Time Temperature Precipitation Wind Pressure Humidity
    00:00 +7°C° 0 mm 1 mps 756 mmHg 75%
    01:00 +7°C° 0 mm 1 mps 756 mmHg 77%
    02:00 +6°C° 0 mm 1 mps 756 mmHg 80%
    03:00 +6°C° 0 mm 1 mps 756 mmHg 83%
    04:00 +6°C° 0 mm 1 mps 756 mmHg 85%
    05:00 +6°C° 0 mm 1 mps 757 mmHg 87%
    06:00 +8°C° 0 mm 1 mps 757 mmHg 80%
    07:00 +10°C° 0 mm 1 mps 757 mmHg 72%
    08:00 +12°C° 0 mm 1 mps 757 mmHg 64%
    09:00 +13°C° 0 mm 1 mps 757 mmHg 57%
    10:00 +14°C° 0 mm 1 mps 757 mmHg 50%
    11:00 +16°C° 0 mm 2 mps 757 mmHg 43%
    12:00 +16°C° 0 mm 1 mps 757 mmHg 43%
    13:00 +16°C° 0 mm 1 mps 757 mmHg 43%
    14:00 +16°C° 0 mm 1 mps 757 mmHg 42%
    15:00 +15°C° 0 mm 1 mps 757 mmHg 44%
    16:00 +15°C° 0 mm 1 mps 757 mmHg 46%
    17:00 +14°C° 0 mm 0 mps 757 mmHg 48%
    18:00 +13°C° 0 mm 0 mps 757 mmHg 51%
    19:00 +12°C° 0 mm 0 mps 757 mmHg 55%
    20:00 +10°C° 0 mm 0 mps 758 mmHg 58%
    21:00 +10°C° 0 mm 0 mps 758 mmHg 61%
    22:00 +9°C° 0 mm 0 mps 758 mmHg 64%
    23:00 +8°C° 0 mm 0 mps 758 mmHg 67%

    23 April, Tuesday

    Time Temperature Precipitation Wind Pressure Humidity
    00:00 +8°C° 0 mm 0 mps 759 mmHg 68%
    01:00 +9°C° 0 mm 1 mps 759 mmHg 70%
    02:00 +8°C° 0 mm 1 mps 759 mmHg 72%
    03:00 +8°C° 0 mm 1 mps 759 mmHg 71%
    04:00 +9°C° 0 mm 1 mps 759 mmHg 71%
    05:00 +9°C° 0 mm 1 mps 759 mmHg 71%
    06:00 +10°C° 0 mm 1 mps 760 mmHg 66%
    07:00 +11°C° 0 mm 1 mps 760 mmHg 62%
    08:00 +12°C° 0 mm 1 mps 760 mmHg 58%
    09:00 +14°C° 0 mm 0 mps 760 mmHg 50%
    10:00 +16°C° 0 mm 0 mps 760 mmHg 43%
    11:00 +18°C° 0 mm 0 mps 760 mmHg 35%
    12:00 +17°C° 0 mm 0 mps 759 mmHg 35%
    13:00 +17°C° 0 mm 0 mps 759 mmHg 36%
    14:00 +16°C° 0 mm 0 mps 759 mmHg 36%
    15:00 +18°C° 0 mm 1 mps 759 mmHg 37%
    16:00 +18°C° 0 mm 1 mps 758 mmHg 37%
    17:00 +18°C° 0 mm 1 mps 758 mmHg 38%
    18:00 +15°C° 0 mm 1 mps 758 mmHg 44%
    19:00 +13°C° 0 mm 1 mps 758 mmHg 50%
    20:00 +11°C° 0 mm 1 mps 758 mmHg 56%
    21:00 +10°C° 0 mm 1 mps 758 mmHg 58%
    22:00 +9°C° 0 mm 0 mps 758 mmHg 60%
    23:00 +8°C° 0 mm 0 mps 759 mmHg 62%
    Show more